Regional Weather Roundup
Issued by NWS Upton, NY

Current Version | Previous Version | Text Only | Print | Product List | Glossary Off
Versions: 1 2 3 4 5 6 7 8 9 10 11 12 13 14 15 16 17 18 19 20 21 22 23 24 25 26 27 28 29 30 31 32 33 34 35 36 37 38 39 40 41 42 43 44 45 46 47 48 49 50

000
ASUS41 KOKX 011105
RWROKX

REGIONAL WEATHER ROUNDUP
NATIONAL WEATHER SERVICE NEW YORK NY
600 AM EST SUN MAR 01 2015

NOTE: "FAIR" INDICATES FEW OR NO CLOUDS BELOW 12,000 FEET WITH NO
SIGNIFICANT WEATHER AND/OR OBSTRUCTIONS TO VISIBILITY.

NYZ071-072-176-178-NJZ106-104-011200-
NEW YORK CITY METRO AREA


CITY           SKY/WX    TMP DP  RH WIND       PRES   REMARKS
CENTRAL PARK   CLOUDY    26  -1  31 W3        30.70S
LAGUARDIA APRT CLOUDY    26   6  42 CALM      30.69S
KENNEDY INTL   CLOUDY    26   7  44 W9        30.71R WCI  17
NEWARK/LIBERTY CLOUDY    21   6  52 SW3       30.70S
BRNX BOT. GARD   N/A    N/A N/A N/A NE2       30.70R
TETERBORO      CLOUDY    20   8  60 CALM      30.69R
$$

NYZ177-179-078>081-011200-
LONG ISLAND NEW YORK

CITY           SKY/WX    TMP DP  RH WIND       PRES   REMARKS
FARMINGDALE    PTCLDY    18  10  71 CALM      30.68F
ISLIP          MOCLDY    17   9  70 CALM      30.67F
SHIRLEY        PTCLDY    11   4  73 CALM      30.70S
WESTHAMPTON    PTCLDY     5  -2  72 CALM      30.71S
MONTAUK POINT    N/A     17  12  80 MISG      30.71S
$$

NYZ052-065-067-011200-
HUDSON VALLEY

CITY           SKY/WX    TMP DP  RH WIND       PRES   REMARKS
WHITE PLAINS   MOCLDY    15   5  64 W3        30.65S
NEWBURGH       MOCLDY    12   5  73 CALM      30.66S
MONTGOMERY     CLOUDY     8   1  73 CALM      30.64F
POUGHKEEPSIE   CLOUDY     9   1  70 CALM      30.68F
ALBANY         CLOUDY     8   1  73 CALM      30.67R
$$

NJZ001-105-106-008-010-013-015-019>022-104-011200-
NEW JERSEY

CITY           SKY/WX    TMP DP  RH WIND       PRES   REMARKS
NEWARK/LIBERTY CLOUDY    21   6  52 SW3       30.70S
TETERBORO      CLOUDY    20   8  60 CALM      30.69R
CALDWELL       CLOUDY    14   4  64 CALM      30.69S
MORRISTOWN     CLOUDY    14   9  79 CALM      30.69S
SOMERVILLE     CLOUDY    12   4  70 CALM      30.67F
SUSSEX         CLOUDY     8   1  73 CALM      30.65R
ANDOVER          N/A     11   5  77 CALM      30.64F
TRENTON        CLOUDY    17   5  59 CALM      30.66F
MILLVILLE      CLOUDY   N/A N/A N/A CALM      30.67F
ATLANTIC CITY  PTCLDY    18  12  77 CALM      30.68F
WRIGHTSTOWN    PTCLDY    17  11  75 CALM      30.65F
TOMS RIVER     PTCLDY    16   7  67 CALM      30.68F
BELMAR         CLOUDY    18   7  62 CALM      30.67F
$$

PAZ047>061-062-071-011200-
EASTERN PENNSYLVANIA

CITY           SKY/WX    TMP DP  RH WIND       PRES   REMARKS
PHILADELPHIA   CLOUDY    24  10  55 CALM      30.68F
ALLENTOWN      CLOUDY    16   4  59 NE3       30.64F
SCRANTON       CLOUDY    15   5  64 N3        30.57F
$$

CTZ002-004>006-009-010-012-RIZ004-006-007-MAZ004-011-015-011200-
SOUTHERN NEW ENGLAND
 IN CT

CITY           SKY/WX    TMP DP  RH WIND       PRES   REMARKS
BRADLEY INTL   MOCLDY     8  -1  66 NW3       30.68R
HARTFORD       PTCLDY     8   4  83 CALM      30.70S
DANBURY        CLOUDY     9  -1  64 CALM      30.67S
WTRBRY/OXFORD  CLOUDY    12  -2  52 CALM      30.64R
BRIDGEPORT     MOCLDY    16   6  65 N5        30.69S WCI   9
MERIDEN        MOCLDY     9   3  77 CALM      30.70R
NEW HAVEN      CLOUDY    13   6  74 CALM      30.69R
CHESTER        FAIR      18   3  53 SW3       30.67R
GROTON         PTCLDY     8   5  87 N3        30.70S
WILLIMANTIC    PTCLDY     2  -4  76 CALM      30.70R

 IN RI

CITY           SKY/WX    TMP DP  RH WIND       PRES   REMARKS
PROVIDENCE     PTCLDY    10   2  69 W3        30.69S
BLOCK ISLAND   PTCLDY    19   7  58 CALM      30.66F
WESTERLY       PTCLDY     4   0  83 CALM      30.70S

 IN MA

CITY           SKY/WX    TMP DP  RH WIND       PRES   REMARKS
BOSTON         PTCLDY    15   4  61 CALM      30.67F
WORCESTER      MOCLDY    15  -1  49 W5        30.59S WCI   8
WESTFIELD      MOCLDY     4  -2  76 CALM      30.68R
PROVINCETOWN   CLEAR      7   3  85 SW3       30.67S
NANTUCKET      CLEAR     10   8  92 CALM      30.69S
$$

ANZ330-335-338-340-345-350-353-355-011200-
COASTAL MARINE OBSERVATIONS


STATION/POSITION TIME  SKY/WX   TEMP    WIND        PRES    VSBY  WAVE
                                AIR SEA DIR/SP/G                  HT/PER
                 (UTC)          (F)     (DEG/KT/KT) (MB)    (MI)  (FT/S)
NY HARB ENTRANCE 1100            28 37  250/  6/  8 1039.2          1/ 9
4S FIRE IS       NOT AVBL
20S FIRE ISLAND  1000               37              1039.9          2/ 9
23SW MTP         1100                                 N/A           2/ 8
HUDSON CANYON    NOT AVBL
EXECUTION ROCKS  NOT AVBL
WESTERN LI SOUND NOT AVBL
CENTRAL LI SOUND NOT AVBL
EASTERN LI SOUND NOT AVBL
ROBBINS REEF     1100            24     260/  5/  7 1038.3
$$


>>>>>>>>>>>>>>>>>>>>>>>>>>>> KEY <<<<<<<<<<<<<<<<<<<<<<<<<<<
>                                                          <
>     SKY/WX - SKY CONDITION/PRESENT WEATHER               <
>     TMP    - TEMPERATURE IN FAHRENHEIT                   <
>     DP     - DEWPOINT IN FAHRENHEIT                      <
>     RH     - RELATIVE HUMIDITY IN PERCENT                <
>     WIND   - DIRECTION AND SPEED IN MPH                  <
>     PRES   - MEAN SEA LEVEL PRESSURE IN INCHES OF HG     <
>     WCI    - WIND CHILL INDEX                            <
>     VSB    - VISIBILITY IN MILES                         <
>     HX     - HEAT INDEX                                  <
>     TC     - TEMPERATURE IN CELSIUS                      <
>     VRB    - VARIABLE WIND DIRECTION                     <
>                                                          <
>>>>>>>>>>>>>>>>>>>>>>>>>>>> KEY <<<<<<<<<<<<<<<<<<<<<<<<<<<





USA.gov is the U.S. government's official web portal to all federal, state and local government web resources and services.